Location: Bidart
(43.4376°N, 1.5913°W)
Time: 04:58:35
(UTC+00:00)

H-2A DEB - Pass Details

Date: 21 April 2026
Orbit: 584 x 592 km, 98.2° (Epoch: 15 May)

Event Time Altitude Azimuth Distance (km) Brightness Sun altitude
Exits shadow 00:50:43 19° 36° (NE) 1,415 ? -33.8°
Drops below altitude 10° 00:52:34 10° 13° (NNE) 1,931 ? -33.7°
Sets 00:55:04 0° 360° (N) 2,838 ? -33.6°
